SCP
1 1 1 1 1 1 1 1 1 1 1 1 1 1 0 0 0 0 1 1 2 2 3 3 2 1 1 1 1 1 1 1 1 1 1 2 2 3 3 2 1 1 1
1 1 1 1 1 1 1 1 1 1 1 1 1 1 1 0 0 1 1 1 2 2 3 3 2 1 1 1 1 1 1 1 1 1 1 1 2 3 3 2 2 1 1
1 1 0 0 0 1 1 1 1 1 0 0 1 1 1 0 1 1 1 1 1 2 3 3 2 1 1 1 1 1 1 1 1 1 1 1 2 2 3 3 2 2 1
1 1 0 0 0 0 0 0 0 0 0 0 1 1 1 0 1 1 1 1 1 2 2 3 2 2 1 1 1 1 1 1 1 1 1 1 1 2 3 4 3 2 2
1 1 0 0 0 0 0 0 0 1 1 1 1 1 1 1 1 1 1 1 1 1 1 2 2 2 1 1 1 1 1 1 1 1 1 1 1 2 3 4 4 2 2
1 1 0 0 0 0 0 0 1 1 1 1 1 1 1 1 1 1 1 1 1 1 1 1 1 1 1 1 1 1 1 1 1 1 1 1 1 1 2 3 3 3 2
1 1 0 0 0 0 0 1 1 1 1 1 1 1 1 1 1 1 1 1 1 1 1 1 1 1 1 1 1 1 1 1 1 1 1 1 0 0 1 2 3 3 2
1 1 1 0 0 1 1 1 1 1 1 1 1 1 1 1 1 1 1 1 1 1 1 1 1 1 1 1 1 1 1 1 1 1 1 1 0 0 0 1 2 3 2
1 1 1 1 1 1 1 1 1 1 1 1 2 2 1 1 1 1 1 1 1 1 1 1 1 1 1 1 1 1 1 1 1 1 1 1 1 1 0 1 2 2 2
1 1 1 1 1 1 1 1 1 1 1 2 2 2 2 1 1 1 1 1 1 1 1 1 1 1 1 1 1 1 1 1 1 1 1 1 1 1 1 1 1 2 2
1 1 2 2 1 1 1 1 1 1 2 2 2 2 2 2 1 1 1 1 1 1 1 1 1 1 1 1 1 1 1 1 1 1 1 1 1 1 1 1 1 1 2
1 1 2 2 2 2 1 1 1 1 2 2 2 2 2 2 2 1 1 1 1 0 1 1 1 0 1 1 1 1 1 0 0 1 1 1 1 1 1 1 1 1 1
1 2 2 2 2 2 2 1 1 2 2 2 2 2 2 2 2 1 1 1 0 0 0 0 0 0 1 1 1 1 1 0 0 0 0 1 1 1 1 1 1 1 1
2 2 2 2 2 3 3 2 3 3 3 2 2 2 1 1 1 1 1 0 0 0 0 0 0 0 0 0 0 1 1 0 0 0 0 0 0 0 1 1 1 1 1
2 2 2 2 2 4 4 4 4 3 3 2 1 1 1 0 0 0 0 0 0 0 0 0 0 0 0 0 0 0 1 1 0 0 0 0 0 0 0 0 0 1 1
3 3 2 2 3 4 5 5 4 3 2 1 1 0 0 0 0 0 0 0 0 0 0 0 0 0 0 0 0 0 1 1 0 0 0 0 0 0 0 0 0 0 0
4 3 3 3 4 5 5 4 3 2 1 1 0 0 0 0 0 0 0 0 0 0 0 0 0 0 0 0 0 0 0 0 0 0 0 0 0 0 0 0 0 0 0
5 4 4 4 5 5 4 3 2 1 1 0 0 0 0 0 0 0 0 0 0 0 0 0 0 0 0 0 0 0 0 0 0 0 0 0 0 0 0 0 0 0 0
5 5 5 5 6 5 3 2 1 1 1 1 0 0 0 0 0 0 0 0 0 0 0 0 0 0 0 0 0 0 0 0 0 0 0 0 0 0 0 0 0 0 0
4 4 5 5 4 3 2 1 1 1 1 1 0 0 0 0 0 0 0 0 0 0 0 0 0 0 0 0 0 0 0 0 0 0 0 0 0 0 0 0 0 0 0
2 3 3 3 2 2 1 1 1 1 1 0 0 0 0 0 0 0 0 0 0 0 0 0 0 0 0 0 0 0 0 0 0 0 0 0 0 0 0 0 0 0 0
1 1 1 1 1 1 1 1 1 1 0 0 0 0 0 0 0 0 0 0 0 0 0 0 0 0 0 0 0 0 0 0 0 0 0 0 0 0 0 0 0 0 0
0 0 1 1 1 1 1 0 0 0 0 0 0 0 0 0 0 0 0 0 0 0 0 0 0 0 0 0 0 0 0 1 0 0 0 0 0 0 0 0 0 0 0
1 1 1 1 1 1 0 0 0 0 0 0 0 0 0 0 0 0 0 0 0 0 0 0 0 0 0 0 0 0 0 0 0 0 0 0 0 0 0 0 0 0 0
1 1 1 1 1 1 0 0 0 0 0 0 0 0 0 0 0 0 0 0 0 0 0 0 0 0 0 0 0 0 0 0 0 0 0 0 0 0 0 0 0 0 0
2 2 2 2 1 1 0 0 0 0 0 0 0 0 0 0 0 0 0 0 0 0 0 0 0 0 0 0 0 0 0 0 0 0 0 1 1 0 0 0 0 0 0
Wind_Speed
1 1 0 0 0 0 0 1 0 1 0 0 1 2 2 2 3 3 2 7 8 7 8 8 8 8 8 7 7 7 7 7 7 7 7 6 6 5 6 6 6 6 5
2 1 1 0 0 0 0 0 0 0 0 0 0 1 2 3 3 3 2 4 7 7 7 8 8 8 8 8 8 7 7 7 7 7 7 6 6 6 6 6 7 6 6
2 2 2 1 0 0 1 1 1 1 1 1 1 0 1 2 3 4 4 3 3 6 8 8 8 8 8 9 8 8 7 7 7 7 8 7 7 6 6 6 7 7 6
3 3 2 0 0 1 1 1 1 2 1 1 1 1 1 1 3 4 4 3 3 3 5 8 8 8 8 8 8 8 8 7 7 7 8 8 8 7 7 7 7 8 7
3 3 1 0 1 1 1 1 1 1 1 1 1 1 1 1 2 3 4 5 4 4 3 6 9 9 9 8 9 9 8 8 7 7 8 8 8 7 7 7 7 8 8
3 3 1 1 1 1 1 1 1 1 0 1 1 2 1 1 1 2 4 4 4 5 4 4 4 6 9 9 9 9 9 9 8 8 8 7 7 7 7 7 7 8 8
2 2 1 1 1 1 0 0 0 1 1 1 2 3 3 2 1 1 2 2 3 4 4 4 4 3 4 9 9 9 10 9 9 8 8 8 7 7 7 7 7 8 9
3 2 2 1 1 1 1 1 1 1 1 1 1 1 3 4 3 2 0 1 1 2 3 5 4 4 3 3 5 9 9 9 9 9 8 8 8 8 8 8 8 7 9
2 2 2 2 1 1 1 0 1 1 0 1 1 2 2 1 3 3 1 1 1 1 2 2 4 4 4 3 3 6 8 8 9 10 9 9 8 8 8 8 8 8 8
2 2 2 2 2 1 1 0 1 1 1 1 1 0 1 2 1 2 3 2 1 1 2 2 3 3 4 3 4 5 6 7 8 8 9 9 8 8 8 8 8 8 9
1 1 2 2 2 1 1 0 1 1 1 1 0 1 1 1 1 1 2 3 2 2 1 1 1 2 3 3 3 4 6 6 7 8 8 8 9 9 8 9 9 8 8
0 0 1 2 1 1 0 0 0 1 0 0 0 0 1 0 1 1 1 2 2 2 2 1 1 2 2 3 4 5 6 6 7 7 7 8 8 8 9 9 9 9 9
0 1 1 1 1 1 1 0 1 1 0 0 0 0 0 1 1 1 1 1 1 2 1 1 1 1 2 2 3 5 5 5 6 7 7 7 8 8 8 8 9 9 8
2 1 1 1 1 1 1 1 1 1 1 1 1 0 0 1 0 0 1 1 0 1 1 2 1 1 1 1 2 3 3 5 5 6 6 7 7 7 7 7 7 6 6
1 2 1 1 1 1 1 2 1 1 1 1 1 1 1 1 1 1 0 1 2 1 2 2 1 1 1 1 1 2 3 4 4 5 6 6 7 7 7 7 6 6 6
1 2 1 1 1 1 1 1 1 1 2 1 1 1 2 1 2 1 1 0 1 2 2 2 2 1 1 1 1 1 2 4 5 5 5 6 6 6 7 7 6 6 5
2 2 2 1 1 1 1 1 1 1 2 2 2 2 2 2 2 2 2 1 1 1 1 2 1 1 1 0 0 0 1 1 2 5 5 5 5 5 6 6 6 6 5
2 2 2 2 2 1 1 1 1 1 1 1 1 2 2 2 2 2 2 2 1 0 1 1 1 1 1 1 0 0 1 1 1 2 4 5 4 5 6 6 6 6 5
2 2 2 2 2 1 1 1 1 1 1 0 0 1 1 2 2 2 2 2 1 2 1 0 1 1 1 1 1 1 1 1 1 1 2 3 3 4 6 6 6 6 5
2 2 2 2 2 2 2 2 2 1 1 1 1 1 0 0 1 1 1 1 1 1 1 1 1 1 1 1 1 0 1 1 1 1 1 0 1 2 3 4 5 6 5
3 2 2 2 2 2 1 2 1 1 1 2 2 1 0 1 1 1 1 0 1 1 1 1 1 1 1 1 1 1 1 1 1 0 0 0 0 1 1 3 4 5 5
2 2 2 2 1 1 1 2 2 1 1 1 1 2 1 2 3 3 3 1 1 1 0 1 1 1 2 2 1 1 1 0 1 1 1 1 1 1 2 2 4 4 4
3 2 2 2 2 1 2 1 1 1 0 0 0 1 1 2 2 2 3 3 3 1 2 2 2 3 2 2 1 1 1 1 2 2 1 1 0 1 1 1 3 4 4
3 3 3 2 2 2 3 2 1 1 0 0 0 1 0 1 1 1 1 2 3 3 2 1 2 4 3 3 3 3 3 2 1 1 1 1 1 1 1 1 2 3 4
3 3 3 3 2 3 4 4 2 1 0 1 0 0 1 0 1 1 2 2 3 3 3 3 3 3 4 3 2 1 0 1 0 1 0 1 1 1 1 1 1 3 4
4 3 3 3 3 3 4 4 4 2 1 0 1 1 1 1 1 1 1 0 2 3 3 4 5 5 3 3 1 2 2 1 1 1 1 1 1 0 1 1 1 1 2
Wind_Direction
152 167 183 224 266 279 246 284 308 313 349 134 155 162 174 169 171 175 176 178 179 181 183 182 180 178 179 181 183 182 178 178 182 181 180 180 181 184 180 175 173 174 173
140 139 124 41 351 313 242 191 223 118 86 122 124 151 169 172 177 172 175 184 184 185 188 190 189 186 186 186 186 186 182 184 186 188 187 188 189 193 189 186 184 185 184
131 126 109 86 339 11 27 39 31 35 33 39 16 16 176 182 176 177 176 182 188 194 195 194 192 191 194 194 193 191 189 192 194 193 194 196 196 199 198 195 192 188 185
130 119 110 114 10 59 57 59 38 28 13 3 329 297 209 199 184 184 180 183 188 200 203 198 197 197 197 198 198 197 198 198 198 198 199 200 201 203 204 198 192 189 188
134 130 128 106 70 67 53 56 56 57 3 329 299 281 258 226 210 191 188 194 196 200 201 202 202 202 199 199 201 203 204 203 201 201 201 202 203 203 201 201 200 193 190
136 129 125 109 93 78 50 32 28 8 294 295 312 329 311 270 218 195 197 196 202 205 205 207 201 209 208 206 207 208 208 206 203 201 201 202 202 199 201 203 202 197 192
127 126 120 108 98 96 113 82 51 6 345 5 32 352 341 337 325 236 203 182 204 208 201 205 203 202 211 211 211 213 211 210 207 205 206 204 201 199 201 199 196 195 194
130 135 129 133 130 99 63 53 64 32 339 28 98 58 356 347 338 336 40 168 220 206 203 205 203 201 205 200 212 214 213 213 211 208 207 205 203 203 204 200 200 199 197
129 126 137 133 118 118 122 59 89 114 344 332 91 132 134 252 306 326 330 322 291 209 221 205 203 201 201 196 202 213 210 211 213 211 209 205 202 201 202 199 198 198 196
129 127 122 129 125 123 121 264 94 127 122 348 334 356 177 178 174 312 326 324 302 256 234 217 209 203 195 188 196 197 199 203 207 209 206 203 201 202 204 204 204 202 201
151 141 128 121 116 117 137 116 86 86 120 135 328 325 358 17 152 165 287 314 328 300 248 218 197 194 188 182 185 193 193 200 205 208 205 205 205 207 208 209 210 208 204
223 173 133 125 121 107 84 283 136 115 120 117 71 66 129 170 244 182 224 275 296 299 302 259 205 202 191 185 198 191 196 200 206 206 203 206 207 209 212 211 213 211 211
194 228 146 140 134 141 174 113 107 67 72 97 153 250 227 225 210 180 181 237 274 298 323 316 244 210 194 182 199 194 201 200 204 205 201 204 209 208 208 210 213 215 215
193 176 151 145 135 119 94 83 76 46 62 45 24 1 328 303 301 180 181 177 290 315 309 286 311 254 218 190 205 194 206 211 214 210 203 203 208 208 206 206 207 210 210
170 147 150 130 93 71 79 92 74 39 41 18 333 350 359 332 339 321 232 161 164 210 264 266 293 299 260 193 196 200 210 218 218 214 210 209 211 209 205 202 200 203 207
145 127 121 107 87 66 66 74 58 28 50 26 14 23 7 345 351 346 348 14 160 176 227 255 243 260 255 196 184 209 221 212 216 210 208 213 214 210 203 196 192 196 199
116 122 134 120 100 74 64 64 37 43 54 35 25 37 12 1 357 350 359 8 8 146 216 276 282 328 6 305 6 267 232 220 229 221 212 211 210 205 195 192 191 193 193
119 119 118 110 100 85 75 84 57 50 66 51 27 46 15 14 9 356 2 359 344 293 192 272 305 320 296 259 229 252 264 253 235 223 213 210 208 201 199 198 195 193 193
123 111 108 110 101 84 81 72 83 62 64 59 82 80 358 19 4 348 356 356 341 358 36 129 308 322 311 336 13 331 323 311 256 210 199 203 200 193 194 195 199 198 196
132 126 124 126 121 104 93 79 71 55 33 20 43 101 268 350 300 316 349 348 2 15 21 33 359 343 327 326 53 342 326 320 289 8 24 171 191 188 195 204 204 201 198
145 144 131 123 123 119 107 92 82 74 51 22 9 4 325 33 20 7 17 335 41 37 11 4 340 355 341 355 326 285 259 281 287 319 41 237 162 194 215 219 215 206 197
147 137 138 137 130 135 123 114 110 95 65 48 356 344 355 34 13 9 12 20 123 157 236 264 265 267 264 255 272 308 277 46 298 286 129 268 150 213 229 212 207 193 194
163 159 164 158 170 204 185 157 125 124 130 218 263 349 5 25 27 18 358 6 8 337 208 201 234 249 245 238 233 264 274 234 235 246 136 245 263 243 250 226 195 184 194
178 181 185 186 185 213 196 183 150 112 65 331 196 178 164 344 351 16 24 19 357 349 330 239 232 253 253 244 216 214 220 245 289 285 118 184 260 243 265 251 214 195 204
185 190 190 187 187 225 213 199 170 121 85 310 286 151 163 216 317 18 64 24 348 331 340 356 321 299 290 283 231 138 121 131 285 286 219 158 245 269 268 252 226 205 209
192 189 195 199 196 211 210 198 178 150 151 275 316 272 232 205 337 18 93 38 312 300 322 338 341 338 332 321 269 187 184 182 198 267 250 166 204 137 317 286 251 229 218